VK5KX Weather Reports


time (UTC)temp
C
wind
direction
speed
KPH
gust
KPH
rain 1hr
cm
rain 24hr
cm
rain mn
cm
humidity
%
barometer
mb
20260504004520 16 150 4.8 16.1 0.05 0.61 0.56 87 1014.9
20260504003017 16 198 4.8 14.5 0.05 0.61 0.56 87 1014.7
20260504001515 16 206 6.4 16.1 0.00 0.58 0.51 89 1014.6
20260504000012 16 160 3.2 11.3 0.00 0.58 0.51 91 1014.5
20260503234509 15 191 1.6 12.9 0.00 0.58 0.51 92 1014.4
20260503233005 15 122 0.0 11.3 0.00 0.58 0.51 93 1014.2
20260503231505 15 216 1.6 6.4 0.05 0.58 0.51 93 1014.1
20260503230000 15 226 1.6 4.8 0.15 0.58 0.51 93 1013.8
20260503224559 14 237 0.0 3.2 0.15 0.58 0.51 93 1013.6
20260503223058 14 249 0.0 11.3 0.15 0.58 0.51 92 1013.4
20260503221557 15 221 0.0 6.4 0.13 0.53 0.48 92 1013.4
20260503220055 15 232 4.8 12.9 0.03 0.43 0.38 92 1013.0
20260503214601 15 228 1.6 6.4 0.03 0.43 0.38 91 1012.7
20260503213052 14 249 1.6 6.4 0.03 0.43 0.38 91 1012.6
20260503211554 14 209 0.0 6.4 0.00 0.43 0.36 91 1012.6
20260503210050 14 212 1.6 9.7 0.05 0.43 0.36 91 1012.5
20260503204557 14 221 1.6 6.4 0.05 0.43 0.36 91 1012.4
20260503203051 14 230 3.2 8.0 0.05 0.43 0.36 91 1012.2
20260503201548 14 265 0.0 8.0 0.08 0.43 0.36 90 1012.2
20260503200048 14 232 1.6 9.7 0.10 0.38 0.33 90 1011.9
20260503194548 14 180 1.6 9.7 0.08 0.36 0.30 89 1011.9
20260503193105 15 233 4.8 12.9 0.08 0.36 0.30 89 1011.9
20260503191550 15 256 4.8 14.5 0.05 0.33 0.28 87 1011.7
20260503190059 15 220 4.8 17.7 0.00 0.28 0.23 87 1011.6
20260503184543 15 243 1.6 14.5 0.00 0.28 0.23 88 1011.5
20260503183055 14 169 1.6 12.9 0.00 0.28 0.23 89 1011.5
20260503181540 14 176 3.2 8.0 0.00 0.28 0.23 90 1011.5
20260503180050 13 186 1.6 8.0 0.00 0.28 0.23 91 1011.5
20260503174535 13 256 1.6 12.9 0.05 0.28 0.23 91 1011.7
20260503173039 13 236 0.0 8.0 0.15 0.28 0.23 92 1011.8
20260503171540 13 234 1.6 8.0 0.18 0.28 0.23 92 1011.8
20260503081620 16 215 3.2 17.7 0.00 0.00 0.00 75 1011.3
20260503080104 16 240 6.4 20.9 0.00 0.00 0.00 74 1011.1
20260503071609 16 265 3.2 8.0 0.00 0.05 0.00 74 1011.2
20260503060103 18 213 6.4 17.7 0.00 0.13 0.00 58 1010.8
20260503054557 19 241 6.4 20.9 0.00 0.13 0.00 59 1010.7
20260503053053 18 200 6.4 27.4 0.00 0.13 0.00 56 1010.7
20260503051558 18 183 6.4 17.7 0.00 0.20 0.00 60 1010.7
20260503050051 19 260 6.4 24.1 0.00 0.20 0.00 56 1010.7
20260503044550 18 206 8.0 22.5 0.00 0.20 0.00 58 1010.6
20260503043052 18 275 8.0 17.7 0.00 0.20 0.00 57 1010.6
20260503041548 19 234 9.7 25.7 0.00 0.25 0.00 58 1010.6
20260503040048 18 213 9.7 24.1 0.00 0.25 0.00 57 1010.9
20260503034545 18 208 8.0 24.1 0.00 0.25 0.00 60 1011.1
20260503033046 18 223 9.7 25.7 0.00 0.25 0.00 63 1011.2
20260503031541 17 155 6.4 20.9 0.00 0.33 0.00 64 1011.2
20260503030039 17 156 8.0 20.9 0.00 0.33 0.00 67 1011.2
20260503024540 17 203 4.8 17.7 0.00 0.33 0.00 70 1011.4
20260503023039 17 189 4.8 17.7 0.00 0.33 0.00 66 1011.6
20260503021545 17 246 6.4 22.5 0.00 0.33 0.00 67 1011.7
20260503020046 17 270 11.3 29.0 0.00 0.33 0.00 64 1011.8
20260503014603 17 207 8.0 22.5 0.00 0.33 0.00 64 1011.8
20260503013038 17 174 11.3 25.7 0.00 0.33 0.00 65 1011.8
20260503011540 17 241 8.0 29.0 0.00 0.33 0.00 65 1011.9
20260503010033 16 304 4.8 22.5 0.00 0.33 0.00 70 1012.0